www.pogodaiklimat.ru
Время
и дата
16:51 29.12
17:51 29.12
18:51 29.12
19:51 29.12
20:51 29.12
21:51 29.12
22:51 29.12
23:51 29.12
00:51 30.12
01:51 30.12
02:51 30.12
03:51 30.12
04:51 30.12
05:51 30.12
06:51 30.12
07:51 30.12
08:51 30.12
09:51 30.12
10:51 30.12
11:51 30.12
12:51 30.12
13:51 30.12
14:51 30.12
15:51 30.12
16:51 30.12
17:51 30.12
18:51 30.12
19:51 30.12
20:51 30.12
21:51 30.12
22:51 30.12
23:51 30.12
00:51 31.12
01:51 31.12
02:51 31.12
03:51 31.12
04:51 31.12
05:51 31.12
06:51 31.12
07:51 31.12
08:51 31.12
09:51 31.12
10:51 31.12
11:51 31.12
12:51 31.12
13:51 31.12
14:51 31.12
15:51 31.12
Ветер
(напр.,м/с)
Видим. Явления Облачность Т
(С)
Тd
(С)
f
(%)
Тe
(С)
Тes
(С)
Комфортность P
(гПа)
Po
(гПа)
Тmin
(С)
Tmax
(С)
R
(мм)
R24
(мм)
S
(см)
СЗ 1 16 км 5/2 1800 м
[Ac Ci]
+14.4 +2.2 44 +14 +15 1012.1 972.6 +11.7 +16.1
С 1 16 км 8/0 2250 м
[Ac Ci]
+13.9 +2.2 45 +13 +13 1012.5 972.6
В 1 16 км 8/8 1950 м
[Ac]
+13.9 +2.8 47 +13 +13 1012.9 973.2
ЮВ 1 16 км 10/5 м
[Ac]
+12.8 +5.0 59 1013.2
ЮВ 1 16 км 8/2 1800 м
[Ac]
+12.2 +7.8 74 +11 +11 1013.5 973.5
В 2 16 км 8/8 1950 м
[Ac]
+12.2 +7.8 74 +10 +10 1013.8 973.9
В 1 16 км 8/8 1470 м
[Ac]
+11.7 +8.9 83 +10 +10 1013.8 973.9 +11.7 +14.4
В 2 16 км 5/0 2100 м
[Ac]
+10.6 +7.8 83 +8 +8 1013.5 973.9
Ю 1 16 км 8/0 2100 м
[Ac]
+10.0 +7.2 83 +8 +8 1014.0 974.2
В 1 16 км 8/8 1500 м +10.0 +7.2 83 +8 +8 1013.7 973.9
В 1 16 км 5/5 1500 м +9.4 +7.8 90 +7 +7 1013.7 973.9
штиль 0 16 км 5/5 1500 м +9.4 +7.8 90 +9 +9 1014.0 974.2
В 1 16 км 2/2 1500 м +8.9 +7.8 93 +6 +6 1013.9 973.9 +8.9 +11.7
В 1 16 км 8/2 1500 м
[Ci]
+8.9 +7.8 93 +6 +6 1013.9 973.9
В 1 16 км 8/2 1500 м
[Ci]
+8.9 +7.8 93 +6 +6 1014.2 974.2
В 1 16 км 8/2 1500 м
[Ci]
+8.3 +7.2 93 +6 +6 1014.4 974.5
В 1 16 км 8/2 1500 м
[Ci]
+9.4 +7.8 90 +8 +8 1014.8 974.8
В 1 16 км 8/2 1500 м
[Ac Ci]
+11.1 +7.8 80 +10 +11 1015.3 975.5
В 1 16 км 8/8 900 м
[Ac]
+12.2 +7.8 74 +11 +11 1015.2 975.5 +8.3 +12.2
штиль 0 16 км 8/8 900 м
[Ac]
+13.3 +7.8 69 +13 +14 1014.5 974.8
В 1 16 км 8/8 1050 м
[Ac]
+14.4 +7.2 62 +14 +16 1013.3 973.5
В 1 16 км 8/2 1050 м
[Ac]
+15.6 +6.7 55 +16 +19 1012.4 972.6
Ю 1 16 км 8/2 1050 м
[Ac]
+15.6 +5.6 51 +16 +18 1012.3 972.6
нст 1 16 км 8/2 1800 м
[Ac]
+16.7 +5.6 48 +17 +19 1011.8 972.2
ЮВ 1 16 км 8/2 1800 м
[Ac Ci]
+16.1 +6.1 51 +16 +17 1011.4 971.9 +12.2 +17.2
штиль 0 16 км 8/2 1800 м
[Ac Ci]
+15.0 +6.1 55 +15 +15 1011.2 971.6
ЮВ 1 16 км 5/2 1800 м
[Ac Ci]
+13.9 +7.2 64 +13 +13 1011.3 971.6
ЮВ 1 16 км 8/0 2550 м
[Ac]
+12.8 +7.8 72 +12 +12 1011.5 971.6
ЮВ 1 16 км 8/0 2250 м
[Ac]
+13.9 +6.7 62 +14 +14 1011.1 971.3
В 1 16 км 8/8 1410 м
[Ac]
+13.3 +6.7 64 +12 +12 1010.9 971.3
В 1 16 км 8/8 1500 м
[Ac]
+12.8 +7.2 69 +12 +12 1010.8 971.3 +12.8 +16.1
ЮВ 2 16 км 10/5 1440 м
[Ac]
+12.8 +7.8 72 +11 +11 1010.3 970.6
В 1 16 км 10/2 1440 м
[Ac]
+12.2 +7.8 74 +11 +11 1009.5 970.0
В 1 16 км 8/2 1260 м
[Ac]
+12.2 +7.8 74 +11 +11 1008.6 969.3
штиль 0 16 км 10/8 1140 м
[Ac]
+12.2 +7.8 74 +12 +12 1008.6 969.3
В 1 16 км 10/8 1080 м
[Ac]
+12.2 +7.8 74 +11 +11 1007.4 968.0
штиль 0 16 км слабый дождь 10/8 900 м
[Ac]
+11.7 +8.3 80 +11 +11 1006.5 967.0 +11.7 +12.8
ЮВ 2 16 км 10/10 870 м +11.7 +7.8 77 +10 +10 1006.0 966.7
В 1 16 км 8/8 1320 м +11.7 +7.8 77 +11 +11 1005.3 966.1
ЮВ 1 16 км 8/8 1230 м +11.7 +7.8 77 +10 +10 1005.4 966.1
ЮВ 1 16 км 10/10 930 м +12.2 +8.9 80 +11 +11 1005.7 966.4
штиль 0 16 км 8/8 900 м +12.8 +8.9 77 +12 +13 1005.9 966.4
нст 1 16 км 8/8 630 м +13.9 +8.9 72 +13 +14 1005.4 966.1 +11.7 +14.4
В 1 16 км 8/8 900 м +14.4 +9.4 72 +14 +15 1003.8 964.8
В 1 16 км 8/8 900 м +14.4 +9.4 72 +14 +15 1002.2 963.1
В 1 16 км 8/8 900 м +14.4 +10.0 75 +14 +15 1000.6 961.5
В 1 16 км слабый дождь 8/5 1500 м
[Ac]
+13.9 +10.6 80 +13 +14 999.6 960.5
штиль 0 16 км 10/8 300 м
[Ac]
+13.9 +10.6 80 +14 +14 1000.0 960.9
Местоположение метеостанции Phoenix Sky Harbor International Airport: широта 33.4278 долгота -112.0035 высота над уровнем моря 340 м.
В архиве по умолчанию представлена погода в Фениксе за последние 1-2 суток. Обновление информации о фактической погоде в базе происходит ежечасно! Архивные данные за месяц целиком и за предыдущие месяцы Вы можете получить, выбрав интересующий диапазон дат из раскрывающегося списка и нажав кнопку "Ввод!".
Внимание! Архив погоды МЕТАР в базе сайта по станциям, не включенным в климатический монитор, хранится не более 60 дней. Нет смысла пытаться выбрать более раннюю дату.
*Определитесь, кто Вы:
Внимание! Время в таблицах - местное (без учета летнего времени). Для получения всемирного времени необходимо вычесть поправку, которая равна -7 ч.
Смотрите также архив погоды в соседних городах и на ближайших метеорологических станциях:
Партнеры нашего сайта:      
Пояснения к столбцам:
  • Ветер - указаны скорость ветра в м/с - средняя за 10 мин, порывы в срок и между сроками (в фигурных скобках) и направление, откуда дует ветер: С - северный,
  • СВ - северо-восточный, В - восточный, ЮВ - юго-восточный, Ю - южный, ЮЗ - юго-западный, З - западный, СЗ - северо-западный.
  • Видимость - горизонтальная дальность видимости в метрах или километрах. При видимости от 1 до 10 км при отсутствии осадков обычно наблюдается дымка, при ухудшении видимости до 1 км и менее - туман. В сухую погоду видимость может ухудшаться дымом, пылью или мглою.
  • Явления - указаны атмосферные явления, наблюдавшиеся в срок или в последний час перед сроком; фигурными скобками обозначены явления, наблюдавшиеся между сроками (за 1-3 часа до срока); квадратными скобками обозначены град или гололедные отложения с указанием их диаметра в мм.
  • Облачность - указаны через наклонную черту общая и нижняя облачность в баллах и высота нижней границы облаков в метрах; квадратными скобками обозначены формы облаков: Ci - перистые, Cs - перисто-слоистые, Cc - перисто-кучевые, Ac - высококучевые, As - высокослоистые, Sc - слоисто-кучевые, Ns - слоисто-дождевые, Cu - кучевые, Cb - кучево-дождевые. Подробнее классификацию облаков см. в Атласе облаков (PDF).
  • T - Температура воздуха - температура, измеренная на высоте 2 м над землей.
  • Td - Температура точки росы - температура, при понижении до которой содержащийся в воздухе водяной пар достигнет насыщения.
  • f - Относительная влажность воздуха - влажноcть воздуха, измеренная на высоте 2 м над землей.
  • Te - Эффективная температура - температура, которую ощущает одетый по сезону человек в тени. Характеристика душности погоды. При расчете учитывается влияние влажности воздуха и скорости ветра на теплоощущения человека.
  • Tes - Эффективная температура на солнце - температура, которую ощущает человек, с поправкой на солнечный нагрев. Характеристика знойности погоды. Зависит от высоты солнца над горизонтом, облачности и скорости ветра. Ночью, в пасмурную погоду, а также при ветре 12 м/с и более поправка равна нулю.
  • P - Атмосферное давление - приведенное к уровню моря атмосферное давление.
  • Po - Атмосферное давление - измеренное на уровне метеостанции атмосферное давление.
  • Tmin - Минимальная температура - минимум температуры воздуха на высоте 2 м над землей.
  • Tmax - Максимальная температура - максимум температуры воздуха на высоте 2 м над землей.
  • R - Количество осадков - Количество выпавших осадков за период времени, мм. При наведении курсора мыши на число - период времени, за который выпало указанное количество осадков.
  • R24 - Количество осадков - Количество выпавших осадков за 24 часа, мм.
  • S - Снежный покров - Высота снежного покрова, см. При наведении курсора мыши на число - состояние снежного покрова и степень покрытия местности в баллах.